Overview Statistics Trail Chart Weather Telemetry Raw packets
 

This is the latest recevied weather packets stored in our database for station/object EA7URS-13. If no packets are shown the sender has not sent any weather packets the latest 10 day(s).

<< 60 61 62 63 64 65 66 >>
Time Temp. Humidity Pressure Rain* Wind** Luminosity Snow
1788249188 23.89° C 48% 1010.5 hPa 0 mm - 174 W/m² -
1788248886 23.89° C 48% 1010.5 hPa 0 mm - 174 W/m² -
1788248585 22.78° C 50% 1010.4 hPa 0 mm - 149 W/m² -
1788248284 22.78° C 50% 1010.4 hPa 0 mm - 149 W/m² -
1788247983 22.22° C 51% 1010.4 hPa 0 mm - 127 W/m² -
1788247682 22.22° C 51% 1010.4 hPa 0 mm - 127 W/m² -
1788247381 21.67° C 51% 1010.3 hPa 0 mm - 105 W/m² -
1788247079 21.67° C 51% 1010.3 hPa 0 mm - 105 W/m² -
1788246778 21.67° C 52% 1010.3 hPa 0 mm - 86 W/m² -
1788246478 21.67° C 52% 1010.3 hPa 0 mm - 86 W/m² -
1788246177 21.67° C 53% 1010.4 hPa 0 mm - 67 W/m² -
1788245875 21.67° C 53% 1010.4 hPa 0 mm - 67 W/m² -
1788245574 21.67° C 51% 1010 hPa 0 mm - 50 W/m² -
1788245273 21.67° C 51% 1010 hPa 0 mm - 50 W/m² -
1788244957 21.67° C 53% 1009.8 hPa 0 mm - 35 W/m² -
1788244656 21.67° C 53% 1009.8 hPa 0 mm - 35 W/m² -
1788244355 21.11° C 55% 1009.7 hPa 0 mm - 21 W/m² -
1788244054 21.11° C 55% 1009.7 hPa 0 mm - 21 W/m² -
1788243753 21.67° C 54% 1009.5 hPa 0 mm - 10 W/m² -
1788243452 21.67° C 54% 1009.5 hPa 0 mm - 10 W/m² -
1788243151 21.67° C 54% 1009.6 hPa 0 mm - 5 W/m² -
1788242849 21.67° C 54% 1009.6 hPa 0 mm - 5 W/m² -
1788242548 21.11° C 55% 1009.6 hPa 0 mm - 2 W/m² -
1788242247 21.11° C 55% 1009.6 hPa 0 mm - 2 W/m² -
1788241946 21.11° C 55% 1009.3 hPa 0 mm - 0 W/m² -

* Rain latest hour (hover to see other rain measurements)
** Current wind speed in m/s (hover to see current wind gust speed)